When you browse on this site, cookies collect data to enhance your experience and personalize the content and advertising you see.
Visit our Privacy Policy to learn more. By continuing to use the site, you agree to this use of cookies and data.
  • Em Portugal
  • Lista de países
  • Para 7 dias
  • Temperatura da água
  • Mapa do tempo
  • Widgets de tempo
  • user-avatar
    Iniciar Sessão

    Previsão horária em Stepanakert

    Hoje, 24 Fevereiro, Segunda-feira

    Tempo Temperatura Precipitação Vento Pressão Humidade
    00:00 +6°C° 0 mm 2 m/s 693 mmHg 73%
    01:00 +7°C° 0 mm 1 m/s 693 mmHg 72%
    02:00 +7°C° 0 mm 1 m/s 693 mmHg 71%
    03:00 +6°C° 0 mm 1 m/s 693 mmHg 70%
    04:00 +6°C° 0 mm 1 m/s 693 mmHg 70%
    05:00 +6°C° 0 mm 1 m/s 692 mmHg 71%
    06:00 +6°C° 0 mm 1 m/s 692 mmHg 71%
    07:00 +7°C° 0 mm 1 m/s 692 mmHg 67%
    08:00 +8°C° 0 mm 1 m/s 692 mmHg 63%
    09:00 +9°C° 0 mm 1 m/s 693 mmHg 59%
    10:00 +10°C° 0 mm 1 m/s 692 mmHg 58%
    11:00 +11°C° 0 mm 1 m/s 691 mmHg 57%
    12:00 +12°C° 0 mm 2 m/s 691 mmHg 56%
    13:00 +12°C° 0 mm 2 m/s 690 mmHg 57%
    14:00 +12°C° 0 mm 2 m/s 689 mmHg 57%
    15:00 +12°C° 0 mm 2 m/s 689 mmHg 58%
    16:00 +11°C° 0 mm 1 m/s 688 mmHg 63%
    17:00 +10°C° 0 mm 1 m/s 688 mmHg 68%
    18:00 +9°C° 0 mm 1 m/s 688 mmHg 73%
    19:00 +8°C° 0 mm 2 m/s 687 mmHg 70%
    20:00 +7°C° 0 mm 2 m/s 687 mmHg 67%
    21:00 +7°C° 0 mm 2 m/s 687 mmHg 64%
    22:00 +7°C° 0 mm 2 m/s 686 mmHg 62%
    23:00 +7°C° 0 mm 2 m/s 686 mmHg 59%

    Amanhã, 25 Fevereiro, Terça-feira

    Tempo Temperatura Precipitação Vento Pressão Humidade
    00:00 +7°C° 0 mm 2 m/s 686 mmHg 57%
    01:00 +6°C° 0 mm 2 m/s 685 mmHg 56%
    02:00 +6°C° 0 mm 2 m/s 685 mmHg 56%
    03:00 +6°C° 0 mm 2 m/s 684 mmHg 55%
    04:00 +6°C° 0 mm 2 m/s 684 mmHg 56%
    05:00 +6°C° 0 mm 2 m/s 684 mmHg 56%
    06:00 +6°C° 0 mm 2 m/s 684 mmHg 56%
    07:00 +7°C° 0 mm 2 m/s 684 mmHg 53%
    08:00 +9°C° 0 mm 2 m/s 685 mmHg 50%
    09:00 +11°C° 0 mm 1 m/s 685 mmHg 47%
    10:00 +12°C° 0 mm 2 m/s 685 mmHg 46%
    11:00 +11°C° 0 mm 3 m/s 685 mmHg 46%
    12:00 +12°C° 0 mm 4 m/s 685 mmHg 46%
    13:00 +11°C° 0 mm 4 m/s 685 mmHg 52%
    14:00 +10°C° 0 mm 4 m/s 685 mmHg 58%
    15:00 +8°C° 0 mm 4 m/s 685 mmHg 64%
    16:00 +7°C° 1.2 mm 3 m/s 686 mmHg 73%
    17:00 +4°C° 1.2 mm 3 m/s 687 mmHg 81%
    18:00 +4°C° 1.2 mm 2 m/s 688 mmHg 90%
    19:00 +3°C° 1.2 mm 2 m/s 689 mmHg 90%
    20:00 +3°C° 1.2 mm 2 m/s 690 mmHg 91%
    21:00 +2°C° 1.2 mm 3 m/s 691 mmHg 91%
    22:00 +3°C° 0.2 mm 2 m/s 691 mmHg 91%
    23:00 +2°C° 0.2 mm 2 m/s 692 mmHg 91%

    Depois de amanhã, 26 Fevereiro, Quarta-feira

    Tempo Temperatura Precipitação Vento Pressão Humidade
    00:00 +2°C° 0.2 mm 2 m/s 692 mmHg 91%
    01:00 +2°C° 0.1 mm 2 m/s 692 mmHg 91%
    02:00 +2°C° 0.1 mm 1 m/s 692 mmHg 90%
    03:00 +2°C° 0.1 mm 1 m/s 692 mmHg 90%
    04:00 +2°C° 0.1 mm 1 m/s 692 mmHg 90%
    05:00 +2°C° 0.1 mm 1 m/s 693 mmHg 90%
    06:00 +2°C° 0.1 mm 1 m/s 693 mmHg 90%
    07:00 +2°C° 0.2 mm 1 m/s 693 mmHg 85%
    08:00 +2°C° 0.2 mm 2 m/s 694 mmHg 81%
    09:00 +2°C° 0.2 mm 2 m/s 694 mmHg 76%
    10:00 +3°C° 0 mm 2 m/s 694 mmHg 72%
    11:00 +4°C° 0 mm 2 m/s 695 mmHg 68%
    12:00 +5°C° 0 mm 2 m/s 695 mmHg 64%
    13:00 +5°C° 0 mm 2 m/s 694 mmHg 63%
    14:00 +5°C° 0 mm 2 m/s 694 mmHg 62%
    15:00 +6°C° 0 mm 2 m/s 694 mmHg 61%
    16:00 +5°C° 0 mm 2 m/s 694 mmHg 65%
    17:00 +5°C° 0 mm 1 m/s 694 mmHg 68%
    18:00 +4°C° 0 mm 1 m/s 694 mmHg 72%
    19:00 +4°C° 0 mm 1 m/s 694 mmHg 73%
    20:00 +4°C° 0 mm 1 m/s 694 mmHg 73%
    21:00 +3°C° 0 mm 1 m/s 695 mmHg 74%
    22:00 +3°C° 0 mm 1 m/s 694 mmHg 73%
    23:00 +3°C° 0 mm 1 m/s 694 mmHg 72%

    27 Fevereiro, Quinta-feira

    Tempo Temperatura Precipitação Vento Pressão Humidade
    00:00 +3°C° 0 mm 1 m/s 694 mmHg 71%
    01:00 +3°C° 0 mm 1 m/s 694 mmHg 69%
    02:00 +3°C° 0 mm 1 m/s 694 mmHg 66%
    03:00 +4°C° 0 mm 1 m/s 694 mmHg 64%
    04:00 +4°C° 0 mm 1 m/s 694 mmHg 61%
    05:00 +4°C° 0 mm 1 m/s 694 mmHg 58%
    06:00 +4°C° 0 mm 1 m/s 694 mmHg 55%
    07:00 +5°C° 0 mm 1 m/s 694 mmHg 53%
    08:00 +7°C° 0 mm 1 m/s 695 mmHg 52%
    09:00 +8°C° 0 mm 1 m/s 695 mmHg 50%
    10:00 +9°C° 0 mm 1 m/s 695 mmHg 49%
    11:00 +10°C° 0 mm 1 m/s 695 mmHg 48%
    12:00 +12°C° 0 mm 1 m/s 695 mmHg 47%
    13:00 +12°C° 0 mm 1 m/s 694 mmHg 49%
    14:00 +12°C° 0 mm 1 m/s 694 mmHg 51%
    15:00 +12°C° 0 mm 1 m/s 693 mmHg 53%
    16:00 +11°C° 0 mm 1 m/s 693 mmHg 57%
    17:00 +10°C° 0 mm 1 m/s 693 mmHg 61%
    18:00 +8°C° 0 mm 1 m/s 692 mmHg 65%
    19:00 +8°C° 0 mm 1 m/s 692 mmHg 63%
    20:00 +8°C° 0 mm 1 m/s 692 mmHg 61%
    21:00 +8°C° 0 mm 1 m/s 692 mmHg 59%
    22:00 +8°C° 0 mm 1 m/s 692 mmHg 56%
    23:00 +8°C° 0 mm 1 m/s 691 mmHg 53%

    28 Fevereiro, Sexta-feira

    Tempo Temperatura Precipitação Vento Pressão Humidade
    00:00 +8°C° 0 mm 1 m/s 691 mmHg 51%
    01:00 +8°C° 0 mm 1 m/s 691 mmHg 49%
    02:00 +8°C° 0 mm 1 m/s 690 mmHg 48%
    03:00 +8°C° 0 mm 1 m/s 690 mmHg 47%
    04:00 +7°C° 0 mm 1 m/s 689 mmHg 46%
    05:00 +7°C° 0 mm 1 m/s 689 mmHg 45%
    06:00 +7°C° 0 mm 1 m/s 689 mmHg 44%
    07:00 +9°C° 0 mm 1 m/s 689 mmHg 44%
    08:00 +10°C° 0 mm 1 m/s 689 mmHg 45%
    09:00 +11°C° 0 mm 1 m/s 689 mmHg 45%
    10:00 +13°C° 0 mm 1 m/s 688 mmHg 44%
    11:00 +14°C° 0 mm 1 m/s 688 mmHg 43%
    12:00 +15°C° 0 mm 1 m/s 687 mmHg 43%
    13:00 +15°C° 0 mm 1 m/s 687 mmHg 43%
    14:00 +15°C° 0 mm 1 m/s 687 mmHg 43%
    15:00 +16°C° 0 mm 1 m/s 686 mmHg 43%
    16:00 +14°C° 0 mm 1 m/s 686 mmHg 47%
    17:00 +13°C° 0 mm 1 m/s 686 mmHg 51%
    18:00 +11°C° 0 mm 1 m/s 685 mmHg 55%
    19:00 +10°C° 0 mm 2 m/s 685 mmHg 51%
    20:00 +10°C° 0 mm 2 m/s 686 mmHg 47%
    21:00 +10°C° 0 mm 2 m/s 686 mmHg 43%
    22:00 +10°C° 0 mm 2 m/s 686 mmHg 41%
    23:00 +9°C° 0 mm 2 m/s 685 mmHg 38%

    29 Fevereiro, Sábado

    Tempo Temperatura Precipitação Vento Pressão Humidade
    00:00 +9°C° 0 mm 2 m/s 685 mmHg 36%
    01:00 +9°C° 0 mm 2 m/s 685 mmHg 36%
    02:00 +9°C° 0 mm 2 m/s 685 mmHg 36%
    03:00 +8°C° 0 mm 2 m/s 685 mmHg 36%
    04:00 +8°C° 0 mm 2 m/s 685 mmHg 38%
    05:00 +8°C° 0 mm 2 m/s 685 mmHg 40%
    06:00 +8°C° 0 mm 2 m/s 685 mmHg 41%
    07:00 +9°C° 0 mm 2 m/s 685 mmHg 41%
    08:00 +10°C° 0 mm 2 m/s 685 mmHg 41%
    09:00 +12°C° 0 mm 1 m/s 686 mmHg 41%
    10:00 +12°C° 0 mm 2 m/s 685 mmHg 44%
    11:00 +12°C° 0 mm 3 m/s 685 mmHg 46%
    12:00 +12°C° 0 mm 3 m/s 685 mmHg 49%
    13:00 +11°C° 0 mm 3 m/s 685 mmHg 52%
    14:00 +11°C° 0 mm 4 m/s 685 mmHg 54%
    15:00 +10°C° 0 mm 4 m/s 684 mmHg 57%
    16:00 +8°C° 0.2 mm 4 m/s 685 mmHg 69%
    17:00 +6°C° 0.2 mm 4 m/s 685 mmHg 80%
    18:00 +5°C° 0.2 mm 4 m/s 686 mmHg 91%
    19:00 +4°C° 3.1 mm 3 m/s 687 mmHg 93%
    20:00 +3°C° 3.1 mm 3 m/s 687 mmHg 95%
    21:00 +4°C° 3.1 mm 2 m/s 688 mmHg 97%
    22:00 +3°C° 3.6 mm 2 m/s 689 mmHg 96%
    23:00 +3°C° 3.6 mm 2 m/s 689 mmHg 96%
    Mostrar mais